• In Hungary
  • List of Countries
  • For 7 days
  • Water Temperature
  • Satellite Maps
  • Weather Map
  • News
  • Weather Widgets
  • user-avatar
    Login

    Hourly Weather Fraczkow

    Today, 20 July, Friday

    Time Temperature Precipitation Wind Pressure Humidity
    00:00 +17°C° 0 mm 3 mps 742 mmHg 95%
    01:00 +17°C° 0 mm 3 mps 742 mmHg 95%
    02:00 +17°C° 0 mm 3 mps 742 mmHg 96%
    03:00 +17°C° 0 mm 3 mps 742 mmHg 96%
    04:00 +16°C° 0 mm 3 mps 742 mmHg 96%
    05:00 +17°C° 0 mm 3 mps 742 mmHg 92%
    06:00 +18°C° 0 mm 3 mps 742 mmHg 88%
    07:00 +19°C° 0 mm 3 mps 742 mmHg 84%
    08:00 +20°C° 0 mm 3 mps 742 mmHg 77%
    09:00 +22°C° 0 mm 3 mps 742 mmHg 70%
    10:00 +24°C° 0 mm 3 mps 742 mmHg 63%
    11:00 +25°C° 0 mm 3 mps 742 mmHg 60%
    12:00 +26°C° 0 mm 3 mps 742 mmHg 57%
    13:00 +26°C° 0 mm 3 mps 742 mmHg 53%
    14:00 +26°C° 0 mm 3 mps 742 mmHg 52%
    15:00 +27°C° 0 mm 3 mps 741 mmHg 52%
    16:00 +27°C° 0 mm 3 mps 741 mmHg 52%
    17:00 +25°C° 0 mm 2 mps 741 mmHg 57%
    18:00 +24°C° 0 mm 2 mps 741 mmHg 62%
    19:00 +23°C° 0 mm 1 mps 741 mmHg 67%
    20:00 +21°C° 0 mm 1 mps 741 mmHg 69%
    21:00 +20°C° 0 mm 1 mps 741 mmHg 71%
    22:00 +19°C° 0 mm 1 mps 741 mmHg 73%
    23:00 +18°C° 0 mm 1 mps 741 mmHg 74%

    Tomorrow, 21 July, Saturday

    Time Temperature Precipitation Wind Pressure Humidity
    00:00 +18°C° 0 mm 1 mps 741 mmHg 75%
    01:00 +18°C° 0 mm 1 mps 741 mmHg 77%
    02:00 +16°C° 0 mm 1 mps 741 mmHg 78%
    03:00 +16°C° 0 mm 1 mps 741 mmHg 79%
    04:00 +16°C° 0 mm 1 mps 741 mmHg 80%
    05:00 +16°C° 0 mm 0 mps 741 mmHg 76%
    06:00 +18°C° 0 mm 0 mps 741 mmHg 72%
    07:00 +20°C° 0 mm 0 mps 741 mmHg 67%
    08:00 +21°C° 0 mm 0 mps 741 mmHg 63%
    09:00 +25°C° 0 mm 1 mps 741 mmHg 58%
    10:00 +26°C° 0 mm 1 mps 741 mmHg 53%
    11:00 +27°C° 0 mm 1 mps 741 mmHg 51%
    12:00 +28°C° 0 mm 1 mps 741 mmHg 50%
    13:00 +28°C° 0 mm 1 mps 740 mmHg 48%
    14:00 +28°C° 0 mm 1 mps 740 mmHg 48%
    15:00 +28°C° 0 mm 1 mps 740 mmHg 47%
    16:00 +28°C° 0 mm 1 mps 740 mmHg 47%
    17:00 +27°C° 0 mm 1 mps 740 mmHg 53%
    18:00 +26°C° 0 mm 1 mps 739 mmHg 59%
    19:00 +24°C° 0 mm 1 mps 739 mmHg 64%
    20:00 +23°C° 0 mm 1 mps 739 mmHg 67%
    21:00 +22°C° 0 mm 1 mps 740 mmHg 69%
    22:00 +20°C° 0 mm 1 mps 740 mmHg 72%
    23:00 +20°C° 0 mm 1 mps 740 mmHg 74%

    Day after tomorrow, 22 July, Sunday

    Time Temperature Precipitation Wind Pressure Humidity
    00:00 +19°C° 0 mm 1 mps 740 mmHg 75%
    01:00 +19°C° 0 mm 1 mps 740 mmHg 77%
    02:00 +18°C° 0 mm 1 mps 740 mmHg 78%
    03:00 +18°C° 0 mm 1 mps 740 mmHg 79%
    04:00 +18°C° 0 mm 1 mps 739 mmHg 81%
    05:00 +19°C° 0 mm 1 mps 740 mmHg 77%
    06:00 +21°C° 0 mm 1 mps 740 mmHg 73%
    07:00 +22°C° 0 mm 1 mps 740 mmHg 69%
    08:00 +24°C° 0 mm 1 mps 740 mmHg 65%
    09:00 +25°C° 0 mm 2 mps 740 mmHg 60%
    10:00 +26°C° 0 mm 2 mps 740 mmHg 56%
    11:00 +27°C° 0 mm 2 mps 740 mmHg 53%
    12:00 +28°C° 0 mm 2 mps 739 mmHg 50%
    13:00 +28°C° 0 mm 2 mps 739 mmHg 48%
    14:00 +28°C° 0 mm 2 mps 739 mmHg 49%
    15:00 +28°C° 0 mm 2 mps 739 mmHg 50%
    16:00 +28°C° 0 mm 2 mps 739 mmHg 52%
    17:00 +27°C° 0 mm 2 mps 739 mmHg 57%
    18:00 +25°C° 0 mm 2 mps 739 mmHg 63%
    19:00 +24°C° 0 mm 2 mps 739 mmHg 69%
    20:00 +23°C° 0 mm 2 mps 739 mmHg 71%
    21:00 +22°C° 0 mm 1 mps 739 mmHg 73%
    22:00 +20°C° 0 mm 1 mps 740 mmHg 75%
    23:00 +20°C° 0 mm 1 mps 740 mmHg 76%

    23 July, Monday

    Time Temperature Precipitation Wind Pressure Humidity
    00:00 +19°C° 0 mm 1 mps 740 mmHg 78%
    01:00 +19°C° 0 mm 1 mps 739 mmHg 79%
    02:00 +18°C° 0 mm 1 mps 739 mmHg 81%
    03:00 +17°C° 0 mm 2 mps 739 mmHg 82%
    04:00 +17°C° 0 mm 2 mps 739 mmHg 84%
    05:00 +18°C° 0 mm 2 mps 740 mmHg 81%
    06:00 +19°C° 0 mm 2 mps 740 mmHg 77%
    07:00 +21°C° 0 mm 2 mps 740 mmHg 73%
    08:00 +23°C° 0 mm 2 mps 740 mmHg 69%
    09:00 +25°C° 0 mm 3 mps 740 mmHg 64%
    10:00 +26°C° 0 mm 3 mps 740 mmHg 59%
    11:00 +27°C° 0 mm 3 mps 740 mmHg 56%
    12:00 +27°C° 0 mm 3 mps 740 mmHg 54%
    13:00 +28°C° 0 mm 4 mps 740 mmHg 51%
    14:00 +28°C° 0 mm 4 mps 740 mmHg 52%
    15:00 +28°C° 0 mm 4 mps 740 mmHg 53%
    16:00 +28°C° 0 mm 4 mps 740 mmHg 54%
    17:00 +27°C° 0.1 mm 3 mps 740 mmHg 60%
    18:00 +25°C° 0.1 mm 3 mps 740 mmHg 66%
    19:00 +24°C° 0.1 mm 2 mps 740 mmHg 72%
    20:00 +23°C° 0.1 mm 2 mps 741 mmHg 75%
    21:00 +21°C° 0.1 mm 2 mps 741 mmHg 78%
    22:00 +19°C° 0.1 mm 2 mps 741 mmHg 81%
    23:00 +19°C° 0 mm 2 mps 741 mmHg 83%

    24 July, Tuesday

    Time Temperature Precipitation Wind Pressure Humidity
    00:00 +19°C° 0 mm 2 mps 741 mmHg 85%
    01:00 +18°C° 0 mm 2 mps 741 mmHg 87%
    02:00 +18°C° 0 mm 2 mps 741 mmHg 88%
    03:00 +17°C° 0 mm 2 mps 741 mmHg 90%
    04:00 +17°C° 0 mm 2 mps 741 mmHg 91%
    05:00 +18°C° 0.1 mm 2 mps 741 mmHg 88%
    06:00 +19°C° 0.1 mm 2 mps 742 mmHg 85%
    07:00 +21°C° 0.1 mm 3 mps 742 mmHg 82%
    08:00 +22°C° 0.3 mm 3 mps 742 mmHg 77%
    09:00 +23°C° 0.3 mm 4 mps 742 mmHg 73%
    10:00 +25°C° 0.3 mm 4 mps 742 mmHg 68%
    11:00 +25°C° 0.2 mm 4 mps 741 mmHg 65%
    12:00 +26°C° 0.2 mm 4 mps 741 mmHg 63%
    13:00 +26°C° 0.2 mm 4 mps 741 mmHg 61%
    14:00 +26°C° 0.2 mm 4 mps 741 mmHg 60%
    15:00 +27°C° 0.2 mm 4 mps 741 mmHg 59%
    16:00 +27°C° 0.2 mm 4 mps 740 mmHg 58%
    17:00 +25°C° 0 mm 3 mps 740 mmHg 63%
    18:00 +24°C° 0 mm 3 mps 740 mmHg 68%
    19:00 +23°C° 0 mm 2 mps 740 mmHg 72%
    20:00 +21°C° 0 mm 2 mps 741 mmHg 75%
    21:00 +20°C° 0 mm 2 mps 741 mmHg 78%
    22:00 +19°C° 0 mm 1 mps 741 mmHg 81%
    23:00 +19°C° 0 mm 1 mps 741 mmHg 83%

    25 July, Wednesday

    Time Temperature Precipitation Wind Pressure Humidity
    00:00 +19°C° 0 mm 1 mps 741 mmHg 84%
    01:00 +18°C° 0 mm 1 mps 741 mmHg 86%
    02:00 +18°C° 0 mm 1 mps 741 mmHg 87%
    03:00 +17°C° 0 mm 2 mps 741 mmHg 89%
    04:00 +16°C° 0 mm 2 mps 741 mmHg 90%
    05:00 +18°C° 0 mm 2 mps 741 mmHg 86%
    06:00 +19°C° 0 mm 2 mps 742 mmHg 81%
    07:00 +21°C° 0 mm 2 mps 742 mmHg 77%
    08:00 +23°C° 0 mm 2 mps 742 mmHg 71%
    09:00 +24°C° 0 mm 3 mps 742 mmHg 65%
    10:00 +26°C° 0 mm 3 mps 742 mmHg 59%
    11:00 +26°C° 0 mm 3 mps 742 mmHg 57%
    12:00 +27°C° 0 mm 3 mps 741 mmHg 55%
    13:00 +27°C° 0 mm 3 mps 741 mmHg 54%
    14:00 +27°C° 0.1 mm 3 mps 741 mmHg 55%
    15:00 +27°C° 0.1 mm 3 mps 741 mmHg 57%
    16:00 +27°C° 0.1 mm 3 mps 741 mmHg 59%
    17:00 +26°C° 0.5 mm 3 mps 741 mmHg 65%
    18:00 +25°C° 0.5 mm 2 mps 741 mmHg 72%
    19:00 +24°C° 0.5 mm 2 mps 741 mmHg 78%
    20:00 +23°C° 0.8 mm 2 mps 741 mmHg 81%
    21:00 +21°C° 0.8 mm 2 mps 741 mmHg 84%
    22:00 +20°C° 0.8 mm 2 mps 741 mmHg 88%
    23:00 +20°C° 0.5 mm 2 mps 741 mmHg 89%
    Show more